Year,Month,Day,Hour,Minute,Value (Times are PST for temperature in C)
2009,03,29,00,00,2.50
2009,03,29,00,01,2.50
2009,03,29,00,02,2.50
2009,03,29,00,03,2.50
2009,03,29,00,04,2.50
2009,03,29,00,05,2.50
2009,03,29,00,06,2.50
2009,03,29,00,07,2.50
2009,03,29,00,08,2.50
2009,03,29,00,09,2.50
2009,03,29,00,10,2.50
2009,03,29,00,11,2.50
2009,03,29,00,12,2.50
2009,03,29,00,13,2.60
2009,03,29,00,14,2.60
2009,03,29,00,15,2.60
2009,03,29,00,16,2.60
2009,03,29,00,17,2.60
2009,03,29,00,18,2.60
2009,03,29,00,19,2.60
2009,03,29,00,20,2.60
2009,03,29,00,21,2.60
2009,03,29,00,22,2.70
2009,03,29,00,23,2.70
2009,03,29,00,24,2.70
2009,03,29,00,25,2.70
2009,03,29,00,26,2.70
2009,03,29,00,27,2.70
2009,03,29,00,28,2.70
2009,03,29,00,29,2.70
2009,03,29,00,30,2.70
2009,03,29,00,31,2.70
2009,03,29,00,32,2.70
2009,03,29,00,33,2.70
2009,03,29,00,34,2.70
2009,03,29,00,35,2.70
2009,03,29,00,36,2.70
2009,03,29,00,37,2.70
2009,03,29,00,38,2.70
2009,03,29,00,39,2.70
2009,03,29,00,40,2.70
2009,03,29,00,41,2.70
2009,03,29,00,42,2.80
2009,03,29,00,43,2.80
2009,03,29,00,44,2.80
2009,03,29,00,45,2.80
2009,03,29,00,46,2.80
2009,03,29,00,47,2.90
2009,03,29,00,48,2.90
2009,03,29,00,49,2.90
2009,03,29,00,50,2.90
2009,03,29,00,51,2.90
2009,03,29,00,52,2.90
2009,03,29,00,53,2.90
2009,03,29,00,54,2.90
2009,03,29,00,55,2.90
2009,03,29,00,56,2.90
2009,03,29,00,57,2.90
2009,03,29,00,58,2.90
2009,03,29,00,59,2.90
2009,03,29,01,00,2.90
2009,03,29,01,01,2.90
2009,03,29,01,02,2.90
2009,03,29,01,03,2.90
2009,03,29,01,04,2.90
2009,03,29,01,05,2.90
2009,03,29,01,06,2.90
2009,03,29,01,07,2.80
2009,03,29,01,08,2.80
2009,03,29,01,09,2.80
2009,03,29,01,10,2.80
2009,03,29,01,11,2.80
2009,03,29,01,12,2.80
2009,03,29,01,13,2.80
2009,03,29,01,14,2.80
2009,03,29,01,15,2.80
2009,03,29,01,16,2.80
2009,03,29,01,17,2.80
2009,03,29,01,18,2.80
2009,03,29,01,19,2.70
2009,03,29,01,20,2.70
2009,03,29,01,21,2.70
2009,03,29,01,22,2.70
2009,03,29,01,23,2.70
2009,03,29,01,24,2.70
2009,03,29,01,25,2.70
2009,03,29,01,26,2.70
2009,03,29,01,27,2.70
2009,03,29,01,28,2.70
2009,03,29,01,29,2.70
2009,03,29,01,30,2.80
2009,03,29,01,31,2.80
2009,03,29,01,32,2.80
2009,03,29,01,33,2.80
2009,03,29,01,34,2.90
2009,03,29,01,35,2.90
2009,03,29,01,36,2.90
2009,03,29,01,37,2.90
2009,03,29,01,38,2.90
2009,03,29,01,39,2.90
2009,03,29,01,40,2.90
2009,03,29,01,41,2.90
2009,03,29,01,42,2.90
2009,03,29,01,43,2.90
2009,03,29,01,44,2.90
2009,03,29,01,45,2.90
2009,03,29,01,46,2.90
2009,03,29,01,47,2.90
2009,03,29,01,48,2.90
2009,03,29,01,49,2.90
2009,03,29,01,50,3.00
2009,03,29,01,51,3.10
2009,03,29,01,52,3.10
2009,03,29,01,53,3.10
2009,03,29,01,54,3.10
2009,03,29,01,55,3.10
2009,03,29,01,56,3.10
2009,03,29,01,57,3.10
2009,03,29,01,58,3.10
2009,03,29,01,59,3.10
2009,03,29,02,00,3.10
2009,03,29,02,01,3.10
2009,03,29,02,02,3.10
2009,03,29,02,03,3.10
2009,03,29,02,04,3.10
2009,03,29,02,05,3.10
2009,03,29,02,06,3.10
2009,03,29,02,07,3.10
2009,03,29,02,08,3.10
2009,03,29,02,09,3.10
2009,03,29,02,10,3.10
2009,03,29,02,11,3.10
2009,03,29,02,12,3.10
2009,03,29,02,13,3.10
2009,03,29,02,14,3.10
2009,03,29,02,15,3.10
2009,03,29,02,16,3.10
2009,03,29,02,17,3.10
2009,03,29,02,18,3.10
2009,03,29,02,19,3.00
2009,03,29,02,20,2.90
2009,03,29,02,21,2.90
2009,03,29,02,22,2.90
2009,03,29,02,23,2.90
2009,03,29,02,24,2.90
2009,03,29,02,25,2.90
2009,03,29,02,26,2.90
2009,03,29,02,27,2.90
2009,03,29,02,28,2.90
2009,03,29,02,29,2.90
2009,03,29,02,30,2.90
2009,03,29,02,31,2.90
2009,03,29,02,32,2.90
2009,03,29,02,33,2.90
2009,03,29,02,34,2.80
2009,03,29,02,35,2.80
2009,03,29,02,36,2.80
2009,03,29,02,37,2.80
2009,03,29,02,38,2.80
2009,03,29,02,39,2.80
2009,03,29,02,40,2.80
2009,03,29,02,41,2.80
2009,03,29,02,42,2.80
2009,03,29,02,43,2.80
2009,03,29,02,44,2.80
2009,03,29,02,45,2.80
2009,03,29,02,46,2.80
2009,03,29,02,47,2.80
2009,03,29,02,48,2.80
2009,03,29,02,49,2.80
2009,03,29,02,50,2.70
2009,03,29,02,51,2.70
2009,03,29,02,52,2.70
2009,03,29,02,53,2.70
2009,03,29,02,54,2.80
2009,03,29,02,55,2.80
2009,03,29,02,56,2.80
2009,03,29,02,57,2.80
2009,03,29,02,58,2.80
2009,03,29,02,59,2.80
2009,03,29,03,00,2.90
2009,03,29,03,01,2.90
2009,03,29,03,02,2.90
2009,03,29,03,03,2.90
2009,03,29,03,04,2.90
2009,03,29,03,05,2.90
2009,03,29,03,06,2.90
2009,03,29,03,07,2.90
2009,03,29,03,08,2.90
2009,03,29,03,09,2.90
2009,03,29,03,10,2.90
2009,03,29,03,11,2.90
2009,03,29,03,12,3.00
2009,03,29,03,13,3.10
2009,03,29,03,14,3.10
2009,03,29,03,15,3.10
2009,03,29,03,16,3.10
2009,03,29,03,17,3.10
2009,03,29,03,18,3.10
2009,03,29,03,19,3.10
2009,03,29,03,20,3.10
2009,03,29,03,21,3.10
2009,03,29,03,22,2.90
2009,03,29,03,23,2.90
2009,03,29,03,24,2.90
2009,03,29,03,25,2.90
2009,03,29,03,26,2.90
2009,03,29,03,27,2.90
2009,03,29,03,28,2.90
2009,03,29,03,29,2.90
2009,03,29,03,30,2.90
2009,03,29,03,31,2.90
2009,03,29,03,32,2.90
2009,03,29,03,33,2.90
2009,03,29,03,34,2.90
2009,03,29,03,35,2.90
2009,03,29,03,36,2.90
2009,03,29,03,37,2.90
2009,03,29,03,38,2.90
2009,03,29,03,39,2.90
2009,03,29,03,40,2.90
2009,03,29,03,41,2.90
2009,03,29,03,42,2.90
2009,03,29,03,43,2.90
2009,03,29,03,44,2.90
2009,03,29,03,45,2.90
2009,03,29,03,46,2.90
2009,03,29,03,47,2.90
2009,03,29,03,48,2.90
2009,03,29,03,49,2.90
2009,03,29,03,50,2.90
2009,03,29,03,51,2.90
2009,03,29,03,52,2.80
2009,03,29,03,53,2.80
2009,03,29,03,54,2.80
2009,03,29,03,55,2.80
2009,03,29,03,56,2.80
2009,03,29,03,57,2.70
2009,03,29,03,58,2.70
2009,03,29,03,59,2.70
2009,03,29,04,00,2.70
2009,03,29,04,01,2.70
2009,03,29,04,02,2.60
2009,03,29,04,03,2.60
2009,03,29,04,04,2.50
2009,03,29,04,05,2.50
2009,03,29,04,06,2.50
2009,03,29,04,07,2.40
2009,03,29,04,08,2.40
2009,03,29,04,09,2.30
2009,03,29,04,10,2.30
2009,03,29,04,11,2.30
2009,03,29,04,12,2.20
2009,03,29,04,13,2.20
2009,03,29,04,14,2.20
2009,03,29,04,15,2.20
2009,03,29,04,16,2.10
2009,03,29,04,17,2.10
2009,03,29,04,18,2.00
2009,03,29,04,19,2.00
2009,03,29,04,20,2.00
2009,03,29,04,21,1.90
2009,03,29,04,22,1.90
2009,03,29,04,23,1.90
2009,03,29,04,24,1.90
2009,03,29,04,25,1.80
2009,03,29,04,26,1.80
2009,03,29,04,27,1.80
2009,03,29,04,28,1.80
2009,03,29,04,29,1.80
2009,03,29,04,30,1.80
2009,03,29,04,31,1.80
2009,03,29,04,32,1.80
2009,03,29,04,33,1.80
2009,03,29,04,34,1.70
2009,03,29,04,35,1.70
2009,03,29,04,36,1.70
2009,03,29,04,37,1.70
2009,03,29,04,38,1.70
2009,03,29,04,39,1.60
2009,03,29,04,40,1.60
2009,03,29,04,41,1.60
2009,03,29,04,42,1.60
2009,03,29,04,43,1.60
2009,03,29,04,44,1.60
2009,03,29,04,45,1.60
2009,03,29,04,46,1.50
2009,03,29,04,47,1.50
2009,03,29,04,48,1.50
2009,03,29,04,49,1.50
2009,03,29,04,50,1.50
2009,03,29,04,51,1.40
2009,03,29,04,52,1.40
2009,03,29,04,53,1.40
2009,03,29,04,54,1.50
2009,03,29,04,55,1.50
2009,03,29,04,56,1.50
2009,03,29,04,57,1.60
2009,03,29,04,58,1.60
2009,03,29,04,59,1.60
2009,03,29,05,00,1.60
2009,03,29,05,01,1.60
2009,03,29,05,02,1.60
2009,03,29,05,03,1.60
2009,03,29,05,04,1.50
2009,03,29,05,05,1.50
2009,03,29,05,06,1.50
2009,03,29,05,07,1.50
2009,03,29,05,08,1.40
2009,03,29,05,09,1.40
2009,03,29,05,10,1.40
2009,03,29,05,11,1.30
2009,03,29,05,12,1.30
2009,03,29,05,13,1.30
2009,03,29,05,14,1.30
2009,03,29,05,15,1.30
2009,03,29,05,16,1.30
2009,03,29,05,17,1.30
2009,03,29,05,18,1.30
2009,03,29,05,19,1.30
2009,03,29,05,20,1.30
2009,03,29,05,21,1.30
2009,03,29,05,22,1.40
2009,03,29,05,23,1.40
2009,03,29,05,24,1.40
2009,03,29,05,25,1.40
2009,03,29,05,26,1.40
2009,03,29,05,27,1.40
2009,03,29,05,28,1.40
2009,03,29,05,29,1.40
2009,03,29,05,30,1.40
2009,03,29,05,31,1.50
2009,03,29,05,32,1.50
2009,03,29,05,33,1.50
2009,03,29,05,34,1.50
2009,03,29,05,35,1.50
2009,03,29,05,36,1.50
2009,03,29,05,37,1.50
2009,03,29,05,38,1.50
2009,03,29,05,39,1.50
2009,03,29,05,40,1.50
2009,03,29,05,41,1.50
2009,03,29,05,42,1.50
2009,03,29,05,43,1.50
2009,03,29,05,44,1.50
2009,03,29,05,45,1.50
2009,03,29,05,46,1.50
2009,03,29,05,47,1.50
2009,03,29,05,48,1.50
2009,03,29,05,49,1.40
2009,03,29,05,50,1.40
2009,03,29,05,51,1.40
2009,03,29,05,52,1.40
2009,03,29,05,53,1.30
2009,03,29,05,54,1.30
2009,03,29,05,55,1.30
2009,03,29,05,56,1.30
2009,03,29,05,57,1.30
2009,03,29,05,58,1.30
2009,03,29,05,59,1.30
2009,03,29,06,00,1.30
2009,03,29,06,01,1.30
2009,03,29,06,02,1.30
2009,03,29,06,03,1.20
2009,03,29,06,04,1.20
2009,03,29,06,05,1.20
2009,03,29,06,06,1.20
2009,03,29,06,07,1.10
2009,03,29,06,08,1.10
2009,03,29,06,09,1.10
2009,03,29,06,10,1.10
2009,03,29,06,11,1.10
2009,03,29,06,12,1.00
2009,03,29,06,13,1.00
2009,03,29,06,14,1.00
2009,03,29,06,15,1.00
2009,03,29,06,16,1.00
2009,03,29,06,17,1.00
2009,03,29,06,18,1.00
2009,03,29,06,19,0.90
2009,03,29,06,20,0.90
2009,03,29,06,21,0.90
2009,03,29,06,22,0.90
2009,03,29,06,23,0.90
2009,03,29,06,24,0.90
2009,03,29,06,25,0.90
2009,03,29,06,26,0.90
2009,03,29,06,27,0.90
2009,03,29,06,28,0.80
2009,03,29,06,29,0.80
2009,03,29,06,30,0.80
2009,03,29,06,31,0.80
2009,03,29,06,32,0.80
2009,03,29,06,33,0.80
2009,03,29,06,34,0.80
2009,03,29,06,35,0.80
2009,03,29,06,36,0.80
2009,03,29,06,37,0.90
2009,03,29,06,38,0.90
2009,03,29,06,39,0.90
2009,03,29,06,40,0.90
2009,03,29,06,41,0.90
2009,03,29,06,42,0.90
2009,03,29,06,43,0.90
2009,03,29,06,44,0.90
2009,03,29,06,45,0.90
2009,03,29,06,46,0.90
2009,03,29,06,47,0.90
2009,03,29,06,48,0.90
2009,03,29,06,49,0.90
2009,03,29,06,50,0.90
2009,03,29,06,51,0.90
2009,03,29,06,52,0.90
2009,03,29,06,53,0.90
2009,03,29,06,54,0.90
2009,03,29,06,55,0.90
2009,03,29,06,56,0.90
2009,03,29,06,57,0.90
2009,03,29,06,58,0.90
2009,03,29,06,59,0.90
2009,03,29,07,00,0.90
2009,03,29,07,01,0.90
2009,03,29,07,02,0.90
2009,03,29,07,03,0.90
2009,03,29,07,04,0.90
2009,03,29,07,05,0.90
2009,03,29,07,06,0.90
2009,03,29,07,07,0.90
2009,03,29,07,08,0.90
2009,03,29,07,09,0.90
2009,03,29,07,10,0.90
2009,03,29,07,11,0.90
2009,03,29,07,12,0.90
2009,03,29,07,13,0.90
2009,03,29,07,14,1.00
2009,03,29,07,15,1.00
2009,03,29,07,16,1.00
2009,03,29,07,17,1.00
2009,03,29,07,18,1.00
2009,03,29,07,19,1.00
2009,03,29,07,20,1.00
2009,03,29,07,21,1.00
2009,03,29,07,22,1.00
2009,03,29,07,23,1.00
2009,03,29,07,24,1.00
2009,03,29,07,25,1.10
2009,03,29,07,26,1.10
2009,03,29,07,27,1.10
2009,03,29,07,28,1.10
2009,03,29,07,29,1.10
2009,03,29,07,30,1.10
2009,03,29,07,31,1.10
2009,03,29,07,32,1.10
2009,03,29,07,33,1.10
2009,03,29,07,34,1.20
2009,03,29,07,35,1.20
2009,03,29,07,36,1.30
2009,03,29,07,37,1.30
2009,03,29,07,38,1.40
2009,03,29,07,39,1.40
2009,03,29,07,40,1.50
2009,03,29,07,41,1.50
2009,03,29,07,42,1.60
2009,03,29,07,43,1.60
2009,03,29,07,44,1.60
2009,03,29,07,45,1.60
2009,03,29,07,46,1.70
2009,03,29,07,47,1.70
2009,03,29,07,48,1.70
2009,03,29,07,49,1.70
2009,03,29,07,50,1.70
2009,03,29,07,51,1.70
2009,03,29,07,52,1.80
2009,03,29,07,53,1.80
2009,03,29,07,54,1.80
2009,03,29,07,55,1.90
2009,03,29,07,56,1.90
2009,03,29,07,57,2.00
2009,03,29,07,58,2.10
2009,03,29,07,59,2.10
2009,03,29,08,00,2.20
2009,03,29,08,01,2.20
2009,03,29,08,02,2.20
2009,03,29,08,03,2.20
2009,03,29,08,04,2.20
2009,03,29,08,05,2.20
2009,03,29,08,06,2.30
2009,03,29,08,07,2.30
2009,03,29,08,08,2.40
2009,03,29,08,09,2.40
2009,03,29,08,10,2.50
2009,03,29,08,11,2.70
2009,03,29,08,12,2.80
2009,03,29,08,13,2.90
2009,03,29,08,14,3.10
2009,03,29,08,15,3.20
2009,03,29,08,16,3.20
2009,03,29,08,17,3.30
2009,03,29,08,18,3.30
2009,03,29,08,19,3.30
2009,03,29,08,20,3.40
2009,03,29,08,21,3.40
2009,03,29,08,22,3.40
2009,03,29,08,23,3.40
2009,03,29,08,24,3.50
2009,03,29,08,25,3.50
2009,03,29,08,26,3.50
2009,03,29,08,27,3.50
2009,03,29,08,28,3.60
2009,03,29,08,29,3.60
2009,03,29,08,30,3.60
2009,03,29,08,31,3.70
2009,03,29,08,32,3.70
2009,03,29,08,33,3.80
2009,03,29,08,34,3.80
2009,03,29,08,35,3.90
2009,03,29,08,36,4.00
2009,03,29,08,37,4.20
2009,03,29,08,38,4.30
2009,03,29,08,39,4.40
2009,03,29,08,40,4.50
2009,03,29,08,41,4.50
2009,03,29,08,42,4.60
2009,03,29,08,43,4.60
2009,03,29,08,44,4.70
2009,03,29,08,45,4.80
2009,03,29,08,46,4.80
2009,03,29,08,47,4.80
2009,03,29,08,48,4.90
2009,03,29,08,49,4.90
2009,03,29,08,50,4.90
2009,03,29,08,51,5.10
2009,03,29,08,52,5.10
2009,03,29,08,53,5.10
2009,03,29,08,54,5.10
2009,03,29,08,55,5.20
2009,03,29,08,56,5.20
2009,03,29,08,57,5.20
2009,03,29,08,58,5.30
2009,03,29,08,59,5.30
2009,03,29,09,00,5.30
2009,03,29,09,01,5.30
2009,03,29,09,02,5.30
2009,03,29,09,03,5.30
2009,03,29,09,04,5.30
2009,03,29,09,05,5.30
2009,03,29,09,06,5.40
2009,03,29,09,07,5.40
2009,03,29,09,08,5.40
2009,03,29,09,09,5.40
2009,03,29,09,10,5.40
2009,03,29,09,11,5.50
2009,03,29,09,12,5.50
2009,03,29,09,13,5.50
2009,03,29,09,14,5.50
2009,03,29,09,15,5.50
2009,03,29,09,16,5.50
2009,03,29,09,17,5.60
2009,03,29,09,18,5.60
2009,03,29,09,19,5.70
2009,03,29,09,20,5.70
2009,03,29,09,21,5.80
2009,03,29,09,22,5.90
2009,03,29,09,23,6.00
2009,03,29,09,24,6.00
2009,03,29,09,25,6.00
2009,03,29,09,26,6.10
2009,03,29,09,27,6.10
2009,03,29,09,28,6.10
2009,03,29,09,29,6.10
2009,03,29,09,30,6.10
2009,03,29,09,31,6.20
2009,03,29,09,32,6.20
2009,03,29,09,33,6.20
2009,03,29,09,34,6.20
2009,03,29,09,35,6.20
2009,03,29,09,36,6.20
2009,03,29,09,37,6.20
2009,03,29,09,38,6.20
2009,03,29,09,39,6.20
2009,03,29,09,40,6.20
2009,03,29,09,41,6.20
2009,03,29,09,42,6.20
2009,03,29,09,43,6.20
2009,03,29,09,44,6.20
2009,03,29,09,45,6.30
2009,03,29,09,46,6.30
2009,03,29,09,47,6.30
2009,03,29,09,48,6.40
2009,03,29,09,49,6.40
2009,03,29,09,50,6.40
2009,03,29,09,51,6.40
2009,03,29,09,52,6.40
2009,03,29,09,53,6.40
2009,03,29,09,54,6.60
2009,03,29,09,55,6.50
2009,03,29,09,56,6.40
2009,03,29,09,57,6.40
2009,03,29,09,58,6.40
2009,03,29,09,59,6.50
2009,03,29,10,00,6.60
2009,03,29,10,01,6.60
2009,03,29,10,02,6.70
2009,03,29,10,03,6.80
2009,03,29,10,04,6.90
2009,03,29,10,05,6.90
2009,03,29,10,06,7.00
2009,03,29,10,07,7.00
2009,03,29,10,08,7.00
2009,03,29,10,09,7.00
2009,03,29,10,10,7.00
2009,03,29,10,11,7.10
2009,03,29,10,12,7.10
2009,03,29,10,13,7.10
2009,03,29,10,14,7.10
2009,03,29,10,15,7.10
2009,03,29,10,16,7.20
2009,03,29,10,17,7.30
2009,03,29,10,18,7.40
2009,03,29,10,19,7.40
2009,03,29,10,20,7.40
2009,03,29,10,21,7.40
2009,03,29,10,22,7.40
2009,03,29,10,23,7.40
2009,03,29,10,24,7.40
2009,03,29,10,25,7.30
2009,03,29,10,26,7.30
2009,03,29,10,27,7.30
2009,03,29,10,28,7.40
2009,03,29,10,29,7.40
2009,03,29,10,30,7.50
2009,03,29,10,31,7.50
2009,03,29,10,32,7.60
2009,03,29,10,33,7.60
2009,03,29,10,34,7.80
2009,03,29,10,35,7.90
2009,03,29,10,36,8.00
2009,03,29,10,37,8.00
2009,03,29,10,38,8.00
2009,03,29,10,39,8.10
2009,03,29,10,40,8.10
2009,03,29,10,41,8.10
2009,03,29,10,42,8.10
2009,03,29,10,43,8.10
2009,03,29,10,44,8.00
2009,03,29,10,45,8.00
2009,03,29,10,46,8.20
2009,03,29,10,47,8.30
2009,03,29,10,48,8.50
2009,03,29,10,49,8.60
2009,03,29,10,50,8.70
2009,03,29,10,51,8.70
2009,03,29,10,52,8.70
2009,03,29,10,53,8.70
2009,03,29,10,54,8.70
2009,03,29,10,55,8.70
2009,03,29,10,56,8.70
2009,03,29,10,57,8.70
2009,03,29,10,58,8.70
2009,03,29,10,59,8.80
2009,03,29,11,00,8.90
2009,03,29,11,01,8.90
2009,03,29,11,02,9.00
2009,03,29,11,03,9.00
2009,03,29,11,04,9.10
2009,03,29,11,05,9.10
2009,03,29,11,06,9.10
2009,03,29,11,07,9.10
2009,03,29,11,08,9.00
2009,03,29,11,09,9.00
2009,03,29,11,10,8.90
2009,03,29,11,11,9.10
2009,03,29,11,12,9.10
2009,03,29,11,13,9.00
2009,03,29,11,14,9.00
2009,03,29,11,15,8.90
2009,03,29,11,16,8.90
2009,03,29,11,17,8.90
2009,03,29,11,18,8.80
2009,03,29,11,19,8.90
2009,03,29,11,20,9.00
2009,03,29,11,21,9.00
2009,03,29,11,22,9.00
2009,03,29,11,23,8.90
2009,03,29,11,24,8.90
2009,03,29,11,25,8.90
2009,03,29,11,26,9.00
2009,03,29,11,27,9.00
2009,03,29,11,28,9.00
2009,03,29,11,29,9.00
2009,03,29,11,30,9.20
2009,03,29,11,31,9.30
2009,03,29,11,32,9.40
2009,03,29,11,33,9.40
2009,03,29,11,34,9.40
2009,03,29,11,35,9.30
2009,03,29,11,36,9.30
2009,03,29,11,37,9.30
2009,03,29,11,38,9.30
2009,03,29,11,39,9.30
2009,03,29,11,40,9.20
2009,03,29,11,41,9.20
2009,03,29,11,42,9.20
2009,03,29,11,43,9.20
2009,03,29,11,44,9.20
2009,03,29,11,45,9.20
2009,03,29,11,46,9.20
2009,03,29,11,47,9.20
2009,03,29,11,48,9.20
2009,03,29,11,49,9.20
2009,03,29,11,50,9.20
2009,03,29,11,51,9.20
2009,03,29,11,52,9.20
2009,03,29,11,53,9.30
2009,03,29,11,54,9.30
2009,03,29,11,55,9.30
2009,03,29,11,56,9.30
2009,03,29,11,57,9.40
2009,03,29,11,58,9.30
2009,03,29,11,59,9.30
2009,03,29,12,00,9.30
2009,03,29,12,01,9.30
2009,03,29,12,02,9.30
2009,03,29,12,03,9.30
2009,03,29,12,04,9.20
2009,03,29,12,05,9.30
2009,03,29,12,06,9.30
2009,03,29,12,07,9.40
2009,03,29,12,08,9.50
2009,03,29,12,09,9.60
2009,03,29,12,10,9.60
2009,03,29,12,11,9.50
2009,03,29,12,12,9.50
2009,03,29,12,13,9.40
2009,03,29,12,14,9.40
2009,03,29,12,15,9.40
2009,03,29,12,16,9.30
2009,03,29,12,17,9.20
2009,03,29,12,18,9.20
2009,03,29,12,19,9.20
2009,03,29,12,20,9.20
2009,03,29,12,21,9.20
2009,03,29,12,22,9.30
2009,03,29,12,23,9.40
2009,03,29,12,24,9.50
2009,03,29,12,25,9.60
2009,03,29,12,26,9.60
2009,03,29,12,27,9.60
2009,03,29,12,28,9.60
2009,03,29,12,29,9.60
2009,03,29,12,30,9.50
2009,03,29,12,31,9.50
2009,03,29,12,32,9.40
2009,03,29,12,33,9.40
2009,03,29,12,34,9.30
2009,03,29,12,35,9.30
2009,03,29,12,36,9.30
2009,03,29,12,37,9.20
2009,03,29,12,38,9.20
2009,03,29,12,39,9.20
2009,03,29,12,40,9.30
2009,03,29,12,41,9.30
2009,03,29,12,42,9.40
2009,03,29,12,43,9.40
2009,03,29,12,44,9.60
2009,03,29,12,45,9.70
2009,03,29,12,46,9.70
2009,03,29,12,47,9.80
2009,03,29,12,48,9.80
2009,03,29,12,49,9.80
2009,03,29,12,50,9.70
2009,03,29,12,51,9.70
2009,03,29,12,52,9.70
2009,03,29,12,53,9.50
2009,03,29,12,54,9.40
2009,03,29,12,55,9.30
2009,03,29,12,56,9.40
2009,03,29,12,57,9.40
2009,03,29,12,58,9.50
2009,03,29,12,59,9.70
2009,03,29,13,00,9.70
2009,03,29,13,01,9.70
2009,03,29,13,02,9.70
2009,03,29,13,03,9.70
2009,03,29,13,04,9.70
2009,03,29,13,05,9.70
2009,03,29,13,06,9.70
2009,03,29,13,07,9.70
2009,03,29,13,08,9.70
2009,03,29,13,09,9.70
2009,03,29,13,10,9.70
2009,03,29,13,11,9.70
2009,03,29,13,12,9.80
2009,03,29,13,13,9.90
2009,03,29,13,14,9.90
2009,03,29,13,15,9.80
2009,03,29,13,16,9.70
2009,03,29,13,17,9.70
2009,03,29,13,18,9.60
2009,03,29,13,19,9.60
2009,03,29,13,20,9.60
2009,03,29,13,21,9.70
2009,03,29,13,22,9.70
2009,03,29,13,23,9.70
2009,03,29,13,24,9.80
2009,03,29,13,25,9.90
2009,03,29,13,26,9.90
2009,03,29,13,27,9.90
2009,03,29,13,28,9.80
2009,03,29,13,29,9.70
2009,03,29,13,30,9.70
2009,03,29,13,31,9.70
2009,03,29,13,32,9.70
2009,03,29,13,33,9.70
2009,03,29,13,34,9.70
2009,03,29,13,35,9.60
2009,03,29,13,36,9.40
2009,03,29,13,37,9.30
2009,03,29,13,38,9.20
2009,03,29,13,39,9.20
2009,03,29,13,40,9.20
2009,03,29,13,41,9.20
2009,03,29,13,42,9.20
2009,03,29,13,43,9.20
2009,03,29,13,44,9.20
2009,03,29,13,45,9.30
2009,03,29,13,46,9.30
2009,03,29,13,47,9.30
2009,03,29,13,48,9.20
2009,03,29,13,49,9.20
2009,03,29,13,50,9.30
2009,03,29,13,51,9.30
2009,03,29,13,52,9.30
2009,03,29,13,53,9.30
2009,03,29,13,54,9.30
2009,03,29,13,55,9.40
2009,03,29,13,56,9.30
2009,03,29,13,57,9.30
2009,03,29,13,58,9.30
2009,03,29,13,59,9.30
2009,03,29,14,00,9.20
2009,03,29,14,01,9.20
2009,03,29,14,02,9.30
2009,03,29,14,03,9.40
2009,03,29,14,04,9.30
2009,03,29,14,05,9.30
2009,03,29,14,06,9.30
2009,03,29,14,07,9.40
2009,03,29,14,08,9.30
2009,03,29,14,09,9.30
2009,03,29,14,10,9.20
2009,03,29,14,11,9.20
2009,03,29,14,12,9.10
2009,03,29,14,13,9.10
2009,03,29,14,14,9.00
2009,03,29,14,15,8.90
2009,03,29,14,16,8.90
2009,03,29,14,17,8.90
2009,03,29,14,18,9.00
2009,03,29,14,19,8.90
2009,03,29,14,20,8.90
2009,03,29,14,21,8.80
2009,03,29,14,22,8.80
2009,03,29,14,23,8.80
2009,03,29,14,24,8.80
2009,03,29,14,25,8.90
2009,03,29,14,26,9.00
2009,03,29,14,27,9.00
2009,03,29,14,28,9.00
2009,03,29,14,29,9.00
2009,03,29,14,30,9.00
2009,03,29,14,31,8.90
2009,03,29,14,32,8.90
2009,03,29,14,33,8.90
2009,03,29,14,34,9.00
2009,03,29,14,35,9.10
2009,03,29,14,36,9.10
2009,03,29,14,37,8.90
2009,03,29,14,38,8.90
2009,03,29,14,39,8.80
2009,03,29,14,40,8.70
2009,03,29,14,41,8.70
2009,03,29,14,42,8.60
2009,03,29,14,43,8.40
2009,03,29,14,44,8.40
2009,03,29,14,45,8.50
2009,03,29,14,46,8.60
2009,03,29,14,47,8.70
2009,03,29,14,48,8.60
2009,03,29,14,49,8.50
2009,03,29,14,50,8.50
2009,03,29,14,51,8.60
2009,03,29,14,52,8.60
2009,03,29,14,53,8.60
2009,03,29,14,54,8.50
2009,03,29,14,55,8.40
2009,03,29,14,56,8.40
2009,03,29,14,57,8.50
2009,03,29,14,58,8.60
2009,03,29,14,59,8.60
2009,03,29,15,00,8.50
2009,03,29,15,01,8.50
2009,03,29,15,02,8.50
2009,03,29,15,03,8.50
2009,03,29,15,04,8.70
2009,03,29,15,05,8.80
2009,03,29,15,06,8.90
2009,03,29,15,07,8.90
2009,03,29,15,08,8.90
2009,03,29,15,09,8.80
2009,03,29,15,10,8.70
2009,03,29,15,11,8.50
2009,03,29,15,12,8.50
2009,03,29,15,13,8.60
2009,03,29,15,14,8.60
2009,03,29,15,15,8.50
2009,03,29,15,16,8.50
2009,03,29,15,17,8.40
2009,03,29,15,18,8.30
2009,03,29,15,19,8.20
2009,03,29,15,20,8.20
2009,03,29,15,21,8.20
2009,03,29,15,22,8.20
2009,03,29,15,23,8.20
2009,03,29,15,24,8.20
2009,03,29,15,25,8.20
2009,03,29,15,26,8.20
2009,03,29,15,27,8.20
2009,03,29,15,28,8.20
2009,03,29,15,29,8.20
2009,03,29,15,30,8.30
2009,03,29,15,31,8.30
2009,03,29,15,32,8.20
2009,03,29,15,33,8.20
2009,03,29,15,34,8.20
2009,03,29,15,35,8.20
2009,03,29,15,36,8.20
2009,03,29,15,37,8.20
2009,03,29,15,38,8.20
2009,03,29,15,39,8.20
2009,03,29,15,40,8.20
2009,03,29,15,41,8.30
2009,03,29,15,42,8.30
2009,03,29,15,43,8.40
2009,03,29,15,44,8.40
2009,03,29,15,45,8.40
2009,03,29,15,46,8.30
2009,03,29,15,47,8.30
2009,03,29,15,48,8.20
2009,03,29,15,49,8.20
2009,03,29,15,50,8.20
2009,03,29,15,51,8.20
2009,03,29,15,52,8.10
2009,03,29,15,53,8.10
2009,03,29,15,54,8.10
2009,03,29,15,55,8.10
2009,03,29,15,56,8.10
2009,03,29,15,57,8.10
2009,03,29,15,58,8.10
2009,03,29,15,59,8.20
2009,03,29,16,00,8.20
2009,03,29,16,01,8.20
2009,03,29,16,02,8.10
2009,03,29,16,03,8.10
2009,03,29,16,04,8.10
2009,03,29,16,05,8.00
2009,03,29,16,06,8.00
2009,03,29,16,07,8.00
2009,03,29,16,08,8.10
2009,03,29,16,09,8.20
2009,03,29,16,10,8.20
2009,03,29,16,11,8.30
2009,03,29,16,12,8.40
2009,03,29,16,13,8.40
2009,03,29,16,14,8.40
2009,03,29,16,15,8.40
2009,03,29,16,16,8.40
2009,03,29,16,17,8.40
2009,03,29,16,18,8.40
2009,03,29,16,19,8.40
2009,03,29,16,20,8.40
2009,03,29,16,21,8.30
2009,03,29,16,22,8.30
2009,03,29,16,23,8.30
2009,03,29,16,24,8.40
2009,03,29,16,25,8.40
2009,03,29,16,26,8.50
2009,03,29,16,27,8.50
2009,03,29,16,28,8.50
2009,03,29,16,29,8.50
2009,03,29,16,30,8.50
2009,03,29,16,31,8.60
2009,03,29,16,32,8.60
2009,03,29,16,33,8.60
2009,03,29,16,34,8.70
2009,03,29,16,35,8.70
2009,03,29,16,36,8.70
2009,03,29,16,37,8.70
2009,03,29,16,38,8.70
2009,03,29,16,39,8.60
2009,03,29,16,40,8.60
2009,03,29,16,41,8.60
2009,03,29,16,42,8.60
2009,03,29,16,43,8.70
2009,03,29,16,44,8.70
2009,03,29,16,45,8.70
2009,03,29,16,46,8.70
2009,03,29,16,47,8.70
2009,03,29,16,48,8.80
2009,03,29,16,49,8.90
2009,03,29,16,50,8.90
2009,03,29,16,51,8.90
2009,03,29,16,52,8.90
2009,03,29,16,53,8.90
2009,03,29,16,54,8.90
2009,03,29,16,55,8.90
2009,03,29,16,56,8.90
2009,03,29,16,57,8.90
2009,03,29,16,58,8.80
2009,03,29,16,59,8.90
2009,03,29,17,00,8.90
2009,03,29,17,01,8.90
2009,03,29,17,02,8.90
2009,03,29,17,03,8.90
2009,03,29,17,04,8.80
2009,03,29,17,05,8.90
2009,03,29,17,06,8.90
2009,03,29,17,07,8.90
2009,03,29,17,08,8.90
2009,03,29,17,09,8.90
2009,03,29,17,10,8.80
2009,03,29,17,11,8.80
2009,03,29,17,12,8.70
2009,03,29,17,13,8.70
2009,03,29,17,14,8.70
2009,03,29,17,15,8.70
2009,03,29,17,16,8.70
2009,03,29,17,17,8.70
2009,03,29,17,18,8.70
2009,03,29,17,19,8.70
2009,03,29,17,20,8.70
2009,03,29,17,21,8.70
2009,03,29,17,22,8.70
2009,03,29,17,23,8.70
2009,03,29,17,24,8.60
2009,03,29,17,25,8.60
2009,03,29,17,26,8.60
2009,03,29,17,27,8.60
2009,03,29,17,28,8.60
2009,03,29,17,29,8.60
2009,03,29,17,30,8.50
2009,03,29,17,31,8.50
2009,03,29,17,32,8.50
2009,03,29,17,33,8.50
2009,03,29,17,34,8.50
2009,03,29,17,35,8.50
2009,03,29,17,36,8.50
2009,03,29,17,37,8.50
2009,03,29,17,38,8.50
2009,03,29,17,39,8.40
2009,03,29,17,40,8.40
2009,03,29,17,41,8.40
2009,03,29,17,42,8.40
2009,03,29,17,43,8.40
2009,03,29,17,44,8.40
2009,03,29,17,45,8.30
2009,03,29,17,46,8.30
2009,03,29,17,47,8.30
2009,03,29,17,48,8.30
2009,03,29,17,49,8.30
2009,03,29,17,50,8.20
2009,03,29,17,51,8.20
2009,03,29,17,52,8.20
2009,03,29,17,53,8.20
2009,03,29,17,54,8.20
2009,03,29,17,55,8.20
2009,03,29,17,56,8.30
2009,03,29,17,57,8.30
2009,03,29,17,58,8.40
2009,03,29,17,59,8.40
2009,03,29,18,00,8.50
2009,03,29,18,01,8.50
2009,03,29,18,02,8.50
2009,03,29,18,03,8.60
2009,03,29,18,04,8.60
2009,03,29,18,05,8.60
2009,03,29,18,06,8.50